UAL363 KEWR-PHNL

Flight info

Callsign UAL363
Flight time N/A
Altitude 34000
Route BWZ J584 FQM/N0464F320 J584 SLT/N0469F360 J584 OBK J100 DBQ VIGGR Q122 KURSE/N0472F380 Q122 LCU J94 LLC ILA ALCOA R463 ADTIL/N0472F400 R463 APACK MAGGI3
Aircraft B772/H-SDE2E3FGHIJ5LORVWXY/LB1D1

Departure

Time 2026-04-26 12:23
Airport Newark Liberty International Airport (KEWR)

Arrival

Time N/A
Airport Daniel K. Inouye International Airport (PHNL)
Time Latitude Longitude Altitude Speed Heading
2026-04-26 12:18 40.69668 -74.17144 26 ft 22 kts 155°
2026-04-26 12:19 40.69535 -74.17069 26 ft 14 kts 168°
2026-04-26 12:19 40.69378 -74.17075 31 ft 30 kts 183°
2026-04-26 12:19 40.69241 -74.17142 26 ft 20 kts 207°
2026-04-26 12:19 40.69108 -74.17229 30 ft 28 kts 206°
2026-04-26 12:20 40.68891 -74.17366 26 ft 35 kts 206°
2026-04-26 12:20 40.68750 -74.17425 27 ft 11 kts 158°
2026-04-26 12:20 40.68636 -74.17405 28 ft 15 kts 200°
2026-04-26 12:20 40.68479 -74.17508 27 ft 38 kts 205°
2026-04-26 12:21 40.68226 -74.17669 31 ft 42 kts 206°
2026-04-26 12:21 40.67988 -74.17820 26 ft 39 kts 206°
2026-04-26 12:21 40.67805 -74.17938 27 ft 22 kts 206°
2026-04-26 12:21 40.67668 -74.18024 27 ft 15 kts 207°
2026-04-26 12:22 40.67582 -74.18008 27 ft 15 kts 133°
2026-04-26 12:22 40.67591 -74.17920 27 ft 16 kts 45°
2026-04-26 12:22 40.67763 -74.17804 27 ft 50 kts 28°
2026-04-26 12:22 40.68319 -74.17450 28 ft 126 kts 26°
2026-04-26 12:23 40.69320 -74.16837 138 ft 182 kts 24°
2026-04-26 12:23 40.70427 -74.16042 1006 ft 183 kts 40°
2026-04-26 12:23 40.71348 -74.14874 1873 ft 189 kts 43°
2026-04-26 12:23 40.72353 -74.13610 2180 ft 209 kts 42°
2026-04-26 12:24 40.73444 -74.12265 2606 ft 224 kts 43°
2026-04-26 12:24 40.74621 -74.10829 3107 ft 233 kts 43°
2026-04-26 12:24 40.75976 -74.09656 3607 ft 242 kts 17°
2026-04-26 12:25 40.79298 -74.10550 4862 ft 262 kts 326°
2026-04-26 12:25 40.80518 -74.12390 5474 ft 275 kts 299°
2026-04-26 12:25 40.81217 -74.14743 6091 ft 275 kts 293°
2026-04-26 12:25 40.81667 -74.17188 6512 ft 285 kts 273°
2026-04-26 12:26 40.81566 -74.19829 7236 ft 284 kts 268°
2026-04-26 12:26 40.81480 -74.22407 7974 ft 285 kts 270°
2026-04-26 12:26 40.81428 -74.25018 8638 ft 286 kts 270°
2026-04-26 12:26 40.81368 -74.27661 9253 ft 289 kts 269°
2026-04-26 12:27 40.81307 -74.30325 9909 ft 291 kts 270°
2026-04-26 12:27 40.81244 -74.33023 10496 ft 298 kts 270°
2026-04-26 12:27 40.81172 -74.35800 10981 ft 307 kts 270°
2026-04-26 12:27 40.81092 -74.38646 11583 ft 311 kts 270°
2026-04-26 12:28 40.81014 -74.41511 12199 ft 314 kts 271°
2026-04-26 12:28 40.80952 -74.43796 12701 ft 315 kts 271°
2026-04-26 12:28 40.80870 -74.46692 13349 ft 316 kts 271°
2026-04-26 12:28 40.80787 -74.49606 13983 ft 318 kts 271°
2026-04-26 12:29 40.80701 -74.52531 14606 ft 320 kts 271°
2026-04-26 12:29 40.80615 -74.55480 15215 ft 322 kts 271°
2026-04-26 12:29 40.80441 -74.61413 16424 ft 326 kts 271°
2026-04-26 12:30 40.80350 -74.64374 16999 ft 327 kts 272°
2026-04-26 12:30 40.80260 -74.67333 17573 ft 328 kts 272°
2026-04-26 12:30 40.80168 -74.70350 18147 ft 330 kts 272°
2026-04-26 12:31 40.79981 -74.76439 19179 ft 334 kts 272°
2026-04-26 12:31 40.79925 -74.79497 19662 ft 334 kts 276°
2026-04-26 12:31 40.80191 -74.82531 20133 ft 333 kts 284°
2026-04-26 12:31 40.80728 -74.85507 20594 ft 333 kts 291°
2026-04-26 12:32 40.81508 -74.88389 21040 ft 334 kts 293°
2026-04-26 12:32 40.82056 -74.90294 21325 ft 335 kts 293°
2026-04-26 12:32 40.83749 -74.96081 22218 ft 340 kts 293°
2026-04-26 12:33 40.84596 -74.98995 22672 ft 341 kts 293°
2026-04-26 12:33 40.85443 -75.01925 23109 ft 342 kts 293°
2026-04-26 12:33 40.86293 -75.04876 23506 ft 345 kts 292°
2026-04-26 12:33 40.87145 -75.07850 23910 ft 347 kts 292°
2026-04-26 12:34 40.87997 -75.10833 24300 ft 349 kts 292°
2026-04-26 12:34 40.88856 -75.13849 24689 ft 351 kts 292°
2026-04-26 12:34 40.89717 -75.16876 25082 ft 352 kts 292°
2026-04-26 12:34 40.90579 -75.19913 25465 ft 354 kts 291°
2026-04-26 12:35 40.91445 -75.22968 25851 ft 355 kts 291°
2026-04-26 12:35 40.92313 -75.26030 26241 ft 357 kts 291°
2026-04-26 12:35 40.93186 -75.29116 26602 ft 359 kts 291°
2026-04-26 12:35 40.94052 -75.32181 26946 ft 361 kts 291°
2026-04-26 12:36 40.94943 -75.35338 27311 ft 363 kts 290°
2026-04-26 12:36 40.95827 -75.38476 27685 ft 365 kts 290°
2026-04-26 12:36 40.96700 -75.41585 28044 ft 366 kts 290°
2026-04-26 12:36 40.97587 -75.44743 28394 ft 367 kts 290°
2026-04-26 12:37 40.98482 -75.47920 28752 ft 369 kts 290°
2026-04-26 12:37 40.99376 -75.51107 29126 ft 370 kts 289°
2026-04-26 12:37 41.00273 -75.54311 29470 ft 372 kts 289°
2026-04-26 12:37 41.01172 -75.57533 29804 ft 373 kts 289°
2026-04-26 12:38 41.02072 -75.60760 30122 ft 375 kts 289°
2026-04-26 12:38 41.02978 -75.64007 30443 ft 377 kts 289°
2026-04-26 12:38 41.03891 -75.67274 30739 ft 379 kts 289°
2026-04-26 12:38 41.04806 -75.70563 31003 ft 382 kts 289°
2026-04-26 12:39 41.05724 -75.73872 31278 ft 384 kts 289°
2026-04-26 12:39 41.06651 -75.77211 31567 ft 386 kts 289°
2026-04-26 12:39 41.07579 -75.80555 31868 ft 388 kts 289°
2026-04-26 12:39 41.08496 -75.83876 32109 ft 390 kts 289°
2026-04-26 12:40 41.09433 -75.87262 32352 ft 393 kts 289°
2026-04-26 12:40 41.10375 -75.90671 32570 ft 395 kts 289°
2026-04-26 12:40 41.11323 -75.94107 32803 ft 398 kts 289°
2026-04-26 12:40 41.12276 -75.97566 33043 ft 400 kts 289°
2026-04-26 12:41 41.13229 -76.01033 33274 ft 402 kts 290°
2026-04-26 12:41 41.14190 -76.04532 33488 ft 404 kts 290°
2026-04-26 12:41 41.15152 -76.08044 33696 ft 406 kts 290°
2026-04-26 12:41 41.16116 -76.11585 33901 ft 409 kts 290°
2026-04-26 12:42 41.17084 -76.15141 34066 ft 412 kts 290°
2026-04-26 12:42 41.19049 -76.22372 34166 ft 420 kts 290°
2026-04-26 12:43 41.21059 -76.29765 34177 ft 432 kts 290°
2026-04-26 12:43 41.23118 -76.37357 34177 ft 442 kts 290°
2026-04-26 12:44 41.25202 -76.45062 34176 ft 450 kts 290°
2026-04-26 12:44 41.27318 -76.52912 34170 ft 452 kts 290°
2026-04-26 12:45 41.29436 -76.60796 34165 ft 452 kts 290°
2026-04-26 12:45 41.31545 -76.68673 34164 ft 451 kts 290°
2026-04-26 12:46 41.33620 -76.76529 34164 ft 450 kts 288°
2026-04-26 12:46 41.35038 -76.84630 34168 ft 449 kts 283°
2026-04-26 12:47 41.36226 -76.92788 34160 ft 448 kts 282°
2026-04-26 12:47 41.37411 -77.00856 34171 ft 446 kts 283°
2026-04-26 12:48 41.38614 -77.08954 34169 ft 445 kts 283°
2026-04-26 12:48 41.39810 -77.17040 34161 ft 444 kts 283°
2026-04-26 12:49 41.40998 -77.25114 34166 ft 443 kts 283°
2026-04-26 12:49 41.42181 -77.33171 34168 ft 442 kts 283°
2026-04-26 12:50 41.43353 -77.41202 34174 ft 442 kts 283°
2026-04-26 12:50 41.44520 -77.49242 34175 ft 442 kts 283°
2026-04-26 12:51 41.45680 -77.57290 34178 ft 442 kts 283°
2026-04-26 12:51 41.46826 -77.65281 34170 ft 442 kts 283°
2026-04-26 12:52 41.47977 -77.73325 34177 ft 442 kts 283°
2026-04-26 12:52 41.49117 -77.81380 34174 ft 442 kts 283°
2026-04-26 12:53 41.50246 -77.89444 34167 ft 442 kts 283°
2026-04-26 12:53 41.51370 -77.97501 34166 ft 442 kts 283°
2026-04-26 12:54 41.52385 -78.05585 34157 ft 442 kts 282°
2026-04-26 12:54 41.53341 -78.13692 34159 ft 441 kts 282°
2026-04-26 12:55 41.54294 -78.21740 34154 ft 441 kts 282°
2026-04-26 12:55 41.55254 -78.29819 34157 ft 440 kts 282°
2026-04-26 12:56 41.56210 -78.37887 34160 ft 440 kts 282°
2026-04-26 12:56 41.57165 -78.45965 34154 ft 440 kts 282°
2026-04-26 12:57 41.58114 -78.54043 34162 ft 441 kts 282°
2026-04-26 12:57 41.59059 -78.62146 34155 ft 442 kts 281°
2026-04-26 12:58 41.60470 -78.74359 34149 ft 443 kts 281°
2026-04-26 12:58 41.61403 -78.82510 34147 ft 444 kts 281°
2026-04-26 12:59 41.62331 -78.90661 34154 ft 444 kts 281°
2026-04-26 12:59 41.63255 -78.98819 34159 ft 444 kts 281°
2026-04-26 13:00 41.64166 -79.06944 34172 ft 444 kts 281°
2026-04-26 13:00 41.65082 -79.15115 34170 ft 445 kts 281°
2026-04-26 13:01 41.65991 -79.23313 34165 ft 446 kts 281°
2026-04-26 13:01 41.66900 -79.31527 34164 ft 446 kts 281°
2026-04-26 13:02 41.67804 -79.39739 34184 ft 447 kts 281°
2026-04-26 13:02 41.68701 -79.47930 34177 ft 448 kts 281°
2026-04-26 13:03 41.69599 -79.56193 34179 ft 448 kts 281°
2026-04-26 13:03 41.70490 -79.64458 34178 ft 448 kts 281°
2026-04-26 13:04 41.71375 -79.72717 34175 ft 448 kts 281°
2026-04-26 13:04 41.72253 -79.80972 34173 ft 448 kts 281°
2026-04-26 13:05 41.73127 -79.89251 34176 ft 448 kts 281°
2026-04-26 13:05 41.73991 -79.97480 34176 ft 448 kts 281°
2026-04-26 13:06 41.74852 -80.05748 34173 ft 448 kts 281°
2026-04-26 13:06 41.75708 -80.14020 34176 ft 448 kts 281°
2026-04-26 13:07 41.76555 -80.22293 34179 ft 448 kts 281°
2026-04-26 13:07 41.77394 -80.30523 34173 ft 448 kts 281°
2026-04-26 13:08 41.78230 -80.38785 34178 ft 448 kts 281°
2026-04-26 13:08 41.79062 -80.47062 34186 ft 448 kts 281°
2026-04-26 13:09 41.79888 -80.55341 34184 ft 448 kts 280°
2026-04-26 13:09 41.80706 -80.63630 34184 ft 449 kts 280°
2026-04-26 13:10 41.81517 -80.71921 34184 ft 449 kts 280°
2026-04-26 13:10 41.82323 -80.80219 34184 ft 449 kts 280°
2026-04-26 13:11 41.83118 -80.88489 34183 ft 450 kts 279°
2026-04-26 13:11 41.83915 -80.96812 34186 ft 450 kts 279°
2026-04-26 13:12 41.84709 -81.05163 34187 ft 451 kts 279°
2026-04-26 13:12 41.85493 -81.13511 34193 ft 451 kts 279°
2026-04-26 13:13 41.86272 -81.21871 34192 ft 451 kts 279°
2026-04-26 13:13 41.87042 -81.30178 34196 ft 452 kts 279°
2026-04-26 13:14 41.87811 -81.38552 34195 ft 452 kts 279°
2026-04-26 13:14 41.88576 -81.46931 34193 ft 453 kts 278°
2026-04-26 13:15 41.89335 -81.55329 34195 ft 453 kts 278°
2026-04-26 13:15 41.89960 -81.62302 34194 ft 453 kts 278°
2026-04-26 13:16 41.90833 -81.72120 34190 ft 453 kts 278°
2026-04-26 13:16 41.91576 -81.80534 34185 ft 454 kts 278°
2026-04-26 13:17 41.92670 -81.93109 34188 ft 454 kts 278°
2026-04-26 13:18 41.93750 -82.05748 34195 ft 454 kts 278°
2026-04-26 13:19 41.94697 -82.16951 34192 ft 453 kts 278°
2026-04-26 13:19 41.95402 -82.25369 34197 ft 453 kts 278°
2026-04-26 13:20 41.96100 -82.33780 34192 ft 453 kts 278°
2026-04-26 13:20 41.96793 -82.42187 34202 ft 452 kts 278°
2026-04-26 13:21 41.97478 -82.50597 34200 ft 453 kts 278°
2026-04-26 13:21 41.98158 -82.59005 34201 ft 453 kts 277°
2026-04-26 13:22 41.98832 -82.67430 34210 ft 453 kts 277°
2026-04-26 13:22 41.99495 -82.75811 34220 ft 453 kts 277°
2026-04-26 13:23 42.00157 -82.84254 34203 ft 454 kts 277°
2026-04-26 13:23 42.00814 -82.92692 34203 ft 454 kts 277°
2026-04-26 13:24 42.01465 -83.01140 34200 ft 453 kts 277°
2026-04-26 13:24 42.02108 -83.09572 34207 ft 453 kts 277°
2026-04-26 13:25 42.02745 -83.18006 34215 ft 453 kts 277°
2026-04-26 13:25 42.03376 -83.26434 34209 ft 453 kts 277°
2026-04-26 13:26 42.04000 -83.34856 34216 ft 452 kts 276°
2026-04-26 13:26 42.04613 -83.43218 34207 ft 452 kts 276°
2026-04-26 13:27 42.04859 -83.51669 34204 ft 452 kts 271°
2026-04-26 13:27 42.04821 -83.60137 34209 ft 452 kts 271°
2026-04-26 13:28 42.04785 -83.68616 34200 ft 453 kts 271°
2026-04-26 13:28 42.04757 -83.77103 34205 ft 453 kts 271°
2026-04-26 13:29 42.04730 -83.85589 34195 ft 454 kts 271°
2026-04-26 13:29 42.04701 -83.94021 34207 ft 454 kts 271°
2026-04-26 13:30 42.04664 -84.02576 34205 ft 454 kts 271°
2026-04-26 13:30 42.04618 -84.11020 34209 ft 454 kts 270°
2026-04-26 13:31 42.04568 -84.19534 34201 ft 454 kts 270°
2026-04-26 13:31 42.04510 -84.28034 34201 ft 454 kts 270°
2026-04-26 13:32 42.04448 -84.36548 34201 ft 455 kts 270°
2026-04-26 13:32 42.04380 -84.45052 34193 ft 454 kts 270°
2026-04-26 13:33 42.04304 -84.53547 34193 ft 454 kts 270°
2026-04-26 13:33 42.04222 -84.62045 34195 ft 454 kts 270°
2026-04-26 13:34 42.04135 -84.70530 34191 ft 454 kts 270°
2026-04-26 13:34 42.04041 -84.79010 34194 ft 453 kts 270°
2026-04-26 13:35 42.03939 -84.87431 34192 ft 453 kts 270°
2026-04-26 13:35 42.03835 -84.95902 34191 ft 452 kts 270°
2026-04-26 13:36 42.03725 -85.04357 34198 ft 451 kts 271°
2026-04-26 13:36 42.04152 -85.12764 34190 ft 450 kts 277°
2026-04-26 13:37 42.04794 -85.21134 34185 ft 450 kts 277°
2026-04-26 13:37 42.05407 -85.29467 34183 ft 450 kts 277°
2026-04-26 13:38 42.06028 -85.37852 34186 ft 450 kts 277°
2026-04-26 13:38 42.06647 -85.46255 34184 ft 451 kts 277°
2026-04-26 13:39 42.07261 -85.54670 34183 ft 451 kts 277°
2026-04-26 13:39 42.07861 -85.63014 34185 ft 451 kts 277°
2026-04-26 13:40 42.08460 -85.71422 34186 ft 451 kts 277°
2026-04-26 13:40 42.09052 -85.79824 34185 ft 451 kts 277°
2026-04-26 13:41 42.09638 -85.88234 34184 ft 451 kts 277°
2026-04-26 13:41 42.10218 -85.96646 34180 ft 451 kts 277°
2026-04-26 13:42 42.10791 -86.05047 34184 ft 451 kts 277°
2026-04-26 13:42 42.11358 -86.13456 34177 ft 451 kts 277°
2026-04-26 13:43 42.11916 -86.21826 34177 ft 451 kts 277°
2026-04-26 13:43 42.12474 -86.30254 34177 ft 451 kts 277°
2026-04-26 13:44 42.13023 -86.38674 34174 ft 450 kts 277°
2026-04-26 13:44 42.13560 -86.47025 34175 ft 450 kts 277°
2026-04-26 13:45 42.14094 -86.55426 34177 ft 449 kts 277°
2026-04-26 13:45 42.14626 -86.63814 34175 ft 448 kts 277°
2026-04-26 13:46 42.15144 -86.72126 34176 ft 447 kts 277°
2026-04-26 13:46 42.15657 -86.80476 34176 ft 445 kts 276°
2026-04-26 13:47 42.16162 -86.88781 34172 ft 444 kts 277°
2026-04-26 13:47 42.16660 -86.97074 34164 ft 443 kts 277°
2026-04-26 13:48 42.17152 -87.05338 34167 ft 442 kts 277°
2026-04-26 13:48 42.17634 -87.13581 34166 ft 440 kts 277°
2026-04-26 13:49 42.18110 -87.21807 34157 ft 440 kts 277°
2026-04-26 13:49 42.18581 -87.30013 34159 ft 438 kts 277°
2026-04-26 13:50 42.19043 -87.38196 34160 ft 437 kts 277°
2026-04-26 13:50 42.19495 -87.46327 34172 ft 437 kts 277°
2026-04-26 13:51 42.19946 -87.54513 34165 ft 437 kts 277°
2026-04-26 13:51 42.20392 -87.62684 34165 ft 436 kts 277°
2026-04-26 13:52 42.20830 -87.70849 34168 ft 436 kts 277°
2026-04-26 13:52 42.21257 -87.78983 34171 ft 436 kts 277°
2026-04-26 13:53 42.21685 -87.87146 34172 ft 436 kts 277°
2026-04-26 13:53 42.22109 -87.95365 34177 ft 436 kts 277°
2026-04-26 13:54 42.22671 -88.03454 34178 ft 435 kts 279°
2026-04-26 13:54 42.23346 -88.11592 34167 ft 436 kts 279°
2026-04-26 13:55 42.24215 -88.22421 34152 ft 436 kts 279°
2026-04-26 13:56 42.25243 -88.35952 34158 ft 436 kts 278°
2026-04-26 13:56 42.25847 -88.44101 34159 ft 435 kts 278°
2026-04-26 13:57 42.26452 -88.52229 34156 ft 434 kts 278°
2026-04-26 13:57 42.27045 -88.60335 34157 ft 434 kts 278°
2026-04-26 13:58 42.27633 -88.68441 34157 ft 434 kts 278°
2026-04-26 13:58 42.28213 -88.76497 34150 ft 434 kts 277°
2026-04-26 13:59 42.28793 -88.84605 34153 ft 433 kts 277°
2026-04-26 13:59 42.29363 -88.92711 34157 ft 433 kts 277°
2026-04-26 14:00 42.30489 -89.08916 34156 ft 432 kts 277°
2026-04-26 14:01 42.31039 -89.16951 34158 ft 432 kts 277°
2026-04-26 14:01 42.31587 -89.25030 34157 ft 431 kts 276°
2026-04-26 14:02 42.32127 -89.33109 34151 ft 431 kts 276°
2026-04-26 14:02 42.32642 -89.41195 34148 ft 431 kts 276°
2026-04-26 14:03 42.33147 -89.49271 34149 ft 431 kts 276°
2026-04-26 14:03 42.33645 -89.57336 34150 ft 431 kts 276°
2026-04-26 14:04 42.34136 -89.65360 34147 ft 431 kts 276°
2026-04-26 14:04 42.34628 -89.73439 34142 ft 431 kts 276°
2026-04-26 14:05 42.35113 -89.81506 34139 ft 430 kts 276°
2026-04-26 14:05 42.35593 -89.89576 34138 ft 431 kts 276°
2026-04-26 14:06 42.36068 -89.97665 34127 ft 431 kts 276°
2026-04-26 14:06 42.36456 -90.04384 34131 ft 431 kts 275°
2026-04-26 14:07 42.36918 -90.12468 34126 ft 431 kts 275°
2026-04-26 14:07 42.37380 -90.20568 34113 ft 431 kts 275°
2026-04-26 14:08 42.37831 -90.28642 34107 ft 430 kts 275°
2026-04-26 14:08 42.38275 -90.36703 34118 ft 430 kts 275°
2026-04-26 14:09 42.38712 -90.44732 34109 ft 430 kts 275°
2026-04-26 14:09 42.39147 -90.52815 34099 ft 430 kts 275°
2026-04-26 14:10 42.39576 -90.60881 34104 ft 430 kts 275°
2026-04-26 14:10 42.39999 -90.68951 34103 ft 429 kts 275°
2026-04-26 14:11 42.40797 -90.81010 34100 ft 428 kts 276°
2026-04-26 14:11 42.41412 -90.89019 34102 ft 428 kts 276°
2026-04-26 14:12 42.42012 -90.97038 34104 ft 428 kts 276°
2026-04-26 14:12 42.42588 -91.05009 34089 ft 428 kts 276°
2026-04-26 14:13 42.43439 -91.17033 34089 ft 428 kts 275°
2026-04-26 14:14 42.43999 -91.25038 34078 ft 428 kts 275°
2026-04-26 14:14 42.44556 -91.33072 34083 ft 428 kts 275°
2026-04-26 14:15 42.45107 -91.41103 34082 ft 428 kts 275°
2026-04-26 14:15 42.45651 -91.49123 34083 ft 428 kts 275°
2026-04-26 14:16 42.46188 -91.57144 34083 ft 427 kts 275°
2026-04-26 14:16 42.46722 -91.65127 34085 ft 428 kts 275°
2026-04-26 14:17 42.47250 -91.73156 34094 ft 428 kts 275°
2026-04-26 14:17 42.47772 -91.81206 34093 ft 428 kts 275°
2026-04-26 14:18 42.48289 -91.89250 34097 ft 428 kts 275°
2026-04-26 14:18 42.48801 -91.97299 34093 ft 429 kts 275°
2026-04-26 14:19 42.49303 -92.05283 34093 ft 429 kts 275°
2026-04-26 14:19 42.49805 -92.13342 34088 ft 429 kts 274°
2026-04-26 14:20 42.50299 -92.21382 34085 ft 428 kts 274°
2026-04-26 14:20 42.50785 -92.29408 34073 ft 427 kts 274°
2026-04-26 14:21 42.51268 -92.37429 34065 ft 427 kts 274°
2026-04-26 14:21 42.51745 -92.45440 34065 ft 426 kts 274°
2026-04-26 14:22 42.52215 -92.53453 34065 ft 426 kts 274°
2026-04-26 14:22 42.52679 -92.61458 34063 ft 425 kts 274°
2026-04-26 14:23 42.53137 -92.69456 34067 ft 424 kts 274°
2026-04-26 14:23 42.53587 -92.77393 34063 ft 424 kts 274°
2026-04-26 14:24 42.54031 -92.85370 34059 ft 424 kts 274°
2026-04-26 14:24 42.54472 -92.93355 34053 ft 424 kts 274°
2026-04-26 14:25 42.54906 -93.01325 34057 ft 424 kts 274°
2026-04-26 14:25 42.55334 -93.09295 34055 ft 424 kts 274°
2026-04-26 14:26 42.55595 -93.17286 34064 ft 425 kts 270°
2026-04-26 14:26 42.55637 -93.21310 34182 ft 427 kts 270°
2026-04-26 14:26 42.55671 -93.25333 34413 ft 426 kts 270°
2026-04-26 14:26 42.55703 -93.29342 34677 ft 425 kts 270°
2026-04-26 14:27 42.55737 -93.33336 34940 ft 423 kts 270°
2026-04-26 14:27 42.55771 -93.37275 35135 ft 423 kts 270°
2026-04-26 14:27 42.55806 -93.41255 35361 ft 422 kts 270°
2026-04-26 14:27 42.55843 -93.45280 35563 ft 422 kts 270°
2026-04-26 14:28 42.55878 -93.49216 35751 ft 421 kts 270°
2026-04-26 14:28 42.55911 -93.53186 35910 ft 421 kts 270°
2026-04-26 14:28 42.55944 -93.57169 35968 ft 423 kts 270°
2026-04-26 14:29 42.56006 -93.65165 36030 ft 424 kts 270°
2026-04-26 14:29 42.56061 -93.73146 36034 ft 422 kts 270°
2026-04-26 14:30 42.56113 -93.81096 36026 ft 420 kts 270°
2026-04-26 14:30 42.56157 -93.88963 36023 ft 419 kts 270°
2026-04-26 14:31 42.56195 -93.96868 36025 ft 418 kts 270°
2026-04-26 14:31 42.56229 -94.04760 36028 ft 418 kts 270°
2026-04-26 14:32 42.56256 -94.12656 36040 ft 419 kts 269°
2026-04-26 14:32 42.56280 -94.20568 36043 ft 420 kts 269°
2026-04-26 14:33 42.56298 -94.28492 36036 ft 420 kts 269°
2026-04-26 14:33 42.56311 -94.36431 36051 ft 421 kts 269°
2026-04-26 14:34 42.56318 -94.44324 36033 ft 421 kts 269°
2026-04-26 14:34 42.56319 -94.52255 36036 ft 421 kts 269°
2026-04-26 14:35 42.56316 -94.60212 36031 ft 421 kts 269°
2026-04-26 14:35 42.56306 -94.68166 36029 ft 422 kts 269°
2026-04-26 14:36 42.56292 -94.76135 36027 ft 422 kts 269°
2026-04-26 14:36 42.56273 -94.84093 36026 ft 421 kts 269°
2026-04-26 14:37 42.56247 -94.92052 36026 ft 421 kts 269°
2026-04-26 14:37 42.56217 -94.99946 36026 ft 421 kts 269°
2026-04-26 14:38 42.56179 -95.07884 36026 ft 421 kts 269°
2026-04-26 14:38 42.56140 -95.15823 36029 ft 421 kts 268°
2026-04-26 14:39 42.56091 -95.23764 36031 ft 421 kts 268°
2026-04-26 14:39 42.56039 -95.31660 36028 ft 421 kts 268°
2026-04-26 14:40 42.55983 -95.39602 36025 ft 421 kts 268°
2026-04-26 14:40 42.55918 -95.47564 36027 ft 422 kts 268°
2026-04-26 14:41 42.55847 -95.55534 36031 ft 422 kts 268°
2026-04-26 14:41 42.55774 -95.63493 36027 ft 422 kts 268°
2026-04-26 14:42 42.55694 -95.71471 36028 ft 423 kts 268°
2026-04-26 14:42 42.55606 -95.79453 36027 ft 423 kts 268°
2026-04-26 14:43 42.55514 -95.87384 36028 ft 424 kts 268°
2026-04-26 14:43 42.55417 -95.95384 36029 ft 424 kts 268°
2026-04-26 14:44 42.55315 -96.03395 36019 ft 425 kts 268°
2026-04-26 14:44 42.55207 -96.11401 36019 ft 424 kts 268°
2026-04-26 14:45 42.55091 -96.19421 36018 ft 424 kts 268°
2026-04-26 14:45 42.54973 -96.27366 36025 ft 424 kts 267°
2026-04-26 14:46 42.54848 -96.35363 36027 ft 424 kts 267°
2026-04-26 14:46 42.54717 -96.43358 36028 ft 424 kts 267°
2026-04-26 14:47 42.54581 -96.51346 36026 ft 423 kts 267°
2026-04-26 14:47 42.54441 -96.59330 36027 ft 423 kts 267°
2026-04-26 14:48 42.54294 -96.67255 36028 ft 422 kts 267°
2026-04-26 14:48 42.54143 -96.75221 36026 ft 422 kts 267°
2026-04-26 14:49 42.53956 -96.83168 36029 ft 421 kts 266°
2026-04-26 14:49 42.53717 -96.91100 36030 ft 421 kts 266°
2026-04-26 14:50 42.53469 -96.99036 36017 ft 421 kts 266°
2026-04-26 14:50 42.53222 -97.06977 36010 ft 422 kts 266°
2026-04-26 14:51 42.52978 -97.14871 36009 ft 422 kts 266°
2026-04-26 14:51 42.52725 -97.22821 36011 ft 422 kts 266°
2026-04-26 14:52 42.52467 -97.30779 36011 ft 422 kts 265°
2026-04-26 14:52 42.52247 -97.37393 36006 ft 422 kts 265°